Location: Demmingen
(48.6757°N, 10.4375°E)
Time: 20:54:39
(UTC+00:00)

SL-16 R/B - Pass Details

Date: 09 August 2024
Orbit: 842 x 845 km, 71.0° (Epoch: 10 September)

Event Time Altitude Azimuth Distance (km) Brightness Sun altitude
Exits shadow 01:11:11 22° 266° (W) 1,762 3.6 -21.3°
Maximum altitude 01:13:52 33° 311° (NW) 1,395 3.4 -21.1°
Drops below altitude 10° 01:18:58 10° 15° (NNE) 2,476 5.7 -20.7°
Sets 01:21:41 0° 25° (NNE) 3,415 6.9 -20.5°
